User: anonymous   Login
Location: Unspecified
(42.3650°N, 71.1030°W)
Time: 09:30:30
(UTC+00:00)
Language:

Explorer 7 - Orbit

View from above orbital plane
View from above orbital plane
View from above satellite
View from above satellite

Ground track
Ground track

The orbit data is extracted from the following two-line orbital elements,

1 00022U 59009A   24170.90515201  .00009226  00000-0  53817-3 0  9990
2 00022  50.2790  44.7769 0112910 115.9517 245.3120 15.07361211689668
Epoch (UTC): 18 June 2024 21:43:25
Eccentricity: 0.0112910
inclination: 50.2790°
perigee height: 466 km
apogee height: 622 km
right ascension of ascending node: 44.7769°
argument of perigee: 115.9517°
revolutions per day: 15.07361211
mean anomaly at epoch: 245.3120°
orbit number at epoch: 68966

The dashed part of the orbit path shows where the satellite is in the earth's shadow,  

DLR